Flag for U.S.A. Weather past 2 weeks in San Bernardino, California, U.S.A.

Now
87 °F

Sunny.


Feels Like: 86 °F
Forecast: 66 / 92 °F
Wind: 9 mph from Northwest

Location: Riverside Municipal Airport

Current Time: Jul 4, 2015 at 4:26:31 PM

Latest Report: Jul 4, 2015 at 3:53 PM


Visibility: 10 mi

Pressure: 29.80 "Hg

Humidity: 35%

Dew point: 56 °F

Location of San BernardinoLocation

Historic Weather in San Bernardino — Graph

°F

San Bernardino temperature yesterday

Maximum temperature yesterday: 91 °F (at 1:53 PM)
Minimum temperature yesterday: 67 °F (at 5:53 AM)
Average temperature yesterday: 78 °F

Past Weeks' High & Low Weather Summary

 TemperatureHumidityPressure
High101 °F (Jun 28, 3:53 PM)84% (Jul 4, 5:53 AM)29.97 "Hg (Jul 4, 5:53 AM)
Low63 °F (Jun 25, 5:53 AM)16% (Jun 19, 2:53 PM)29.75 "Hg (Jun 19, 5:53 PM)
Average80 °F46%29.86 "Hg
* Reported Jun 19 2:53 PM — Jul 4 2:53 PM, San Bernardino, Weather by CustomWeather, © 2015

Note: Actual official high and low records may vary slightly from our data, if they occured in-between our weather recording intervals... More about our weather records

Advertising

San Bernardino weather history for previous 24 hours

 ConditionsComfort  
Time TempWeatherWind HumidityBarometerVisibility
2:53 PM
Sat, Jul 4
87 °FSunny.14 mph35%29.81 "Hg10 mi
1:53 PM87 °FScattered clouds.10 mph37%29.82 "Hg10 mi
12:53 PM84 °FSunny.9 mph43%29.83 "Hg10 mi
11:53 AM83 °FSunny.6 mph43%29.84 "Hg10 mi
10:53 AM79 °FSunny.6 mph47%29.84 "Hg10 mi
9:53 AM75 °FSunny.5 mph54%29.84 "Hg10 mi
8:53 AM72 °FSunny.3 mph59%29.85 "Hg10 mi
7:53 AM67 °FSunny.3 mph73%29.85 "Hg10 mi
6:53 AM65 °FSunny.No wind81%29.84 "Hg9 mi
5:53 AM64 °FClear.No wind84%29.84 "Hg10 mi
4:53 AM64 °FClear.3 mph81%29.83 "Hg10 mi
3:53 AM65 °FClear.3 mph76%29.83 "Hg10 mi
2:53 AM67 °FClear.5 mph63%29.83 "Hg10 mi
1:53 AM67 °FClear.5 mph63%29.84 "Hg10 mi
12:53 AM69 °FClear.3 mph61%29.84 "Hg10 mi
11:53 PM
Fri, Jul 3
71 °FClear.No wind55%29.85 "Hg10 mi
10:53 PM73 °FClear.No wind50%29.85 "Hg10 mi
9:53 PM75 °FClear.6 mph43%29.84 "Hg10 mi
8:53 PM77 °FSunny.7 mph52%29.81 "Hg10 mi
7:53 PM81 °FSunny.9 mph45%29.79 "Hg10 mi
6:53 PM85 °FPartly sunny.12 mph43%29.78 "Hg10 mi
5:53 PM87 °FPartly sunny.10 mph40%29.78 "Hg10 mi
4:53 PM89 °FPartly sunny.10 mph35%29.79 "Hg10 mi
Weather by CustomWeather, © 2015

See weather overviewHow to use our weather pages